Regional Weather Roundup
Issued by NWS

Home | Current Version | Previous Version | Text Only | Print | Product List | Glossary Off
Versions: 1 2 3 4 5 6 7 8 9 10 11 12 13 14 15 16 17 18 19 20 21 22 23 24 25 26 27 28 29 30 31 32 33 34 35 36 37 38 39 40 41 42 43 44 45 46 47 48 49 50

000
ASUS43 KLMK 190602
RWRKY
KENTUCKY REGIONAL WEATHER ROUNDUP
NATIONAL WEATHER SERVICE LOUISVILLE KY
100 AM EST FRI DEC 19 2014

NOTE "FAIR" INDICATES FEW OR NO CLOUDS BELOW 12,000 FEET
WITH NO SIGNIFICANT WEATHER AND/OR OBSTRUCTIONS TO VISIBILITY.

KYZ001>023-026-027-061>063-070>075-190700-
WESTERN AND SOUTH CENTRAL KENTUCKY

CITY           SKY/WX    TMP DP  RH WIND       PRES   REMARKS
PADUCAH        CLOUDY    35  31  85 N3        30.27R
HENDERSON      CLOUDY    32  25  74 N6        30.27F WCI  26
OWENSBORO      CLOUDY    33  27  79 MISG      30.27F
HOPKINSVILLE   CLOUDY    34  29  83 N7        30.25S WCI  27
BOWLING GREEN  CLOUDY    34  26  72 N3        30.26F
GLASGOW        NOT AVBL
$$

KYZ024-025-028>034-038-045-046-053-190700-
NORTH CENTRAL KENTUCKY

CITY           SKY/WX    TMP DP  RH WIND       PRES   REMARKS
LOUISVILLE/SDF CLOUDY    32  24  72 N5        30.26S WCI  27
LOUISVILLE/LOU CLOUDY    31  23  72 N6        30.26F WCI  25
FORT KNOX      CLOUDY    31  26  80 NW2       30.23F
$$

KYZ035>037-039>044-047>052-055>060-089>105-190700-
NORTHEAST KENTUCKY

CITY           SKY/WX    TMP DP  RH WIND       PRES   REMARKS
LEXINGTON      CLOUDY    29  24  82 NW5       30.23S WCI  24
COVINGTON      CLOUDY    28  21  75 NW5       30.24S WCI  23
FRANKFORT      CLOUDY    30  23  75 NW3       30.23F
$$

KYZ054-064>069-076>088-106>120-190700-
SOUTHEAST KENTUCKY

CITY           SKY/WX    TMP DP  RH WIND       PRES   REMARKS
JACKSON        CLOUDY    31  24  75 CALM      30.20S
LONDON         CLOUDY    34  25  69 N5        30.21S WCI  30
SOMERSET       NOT AVBL
MIDDLESBORO    NOT AVBL
MONTICELLO     CLOUDY    34  28  79 CALM      30.24F
$$




USA.gov is the U.S. government's official web portal to all federal, state and local government web resources and services.